Location: Drocourt
(49.0571°N, 1.7669°E)
Time: 02:03:45
(UTC+00:00)

Transit 4A - Pass Details

Date: 21 April 2024
Orbit: 871 x 971 km, 66.8° (Epoch: 19 May)

Event Time Altitude Azimuth Distance (km) Brightness Sun altitude
Rises 15:16:09 0° 276° (W) 3,505 11.7 34.1°
Reaches altitude 10° 15:19:31 10° 295° (WNW) 2,552 10.9 33.6°
Maximum altitude 15:23:30 18° 338° (NNW) 2,008 9.9 33.0°
Drops below altitude 10° 15:27:29 10° 21° (NNE) 2,534 9.9 32.4°
Sets 15:30:48 0° 40° (NE) 3,470 10.4 31.9°
